Weather History for Wheeler AAF, HI

Change the Weather History Date:

Tuesday, March 19, 2013

  Actual Average Record
Temperature  
Mean Temperature 66 °F -  
Max Temperature 75 °F 74 °F 82 °F (1997)
Min Temperature 56 °F 60 °F 56 °F (2013)
Growing Degree Days 16 (Base 50)    
Moisture  
Dew Point 59 °F    
Average Humidity 79    
Maximum Humidity 93    
Minimum Humidity 57    
Precipitation  
Precipitation 0.02 in - - ()
Sea Level Pressure  
Sea Level Pressure 29.97 in    
Wind  
Wind Speed 3 mph (SSW)    
Max Wind Speed 12 mph    
Max Gust Speed 17 mph    
Visibility 10 miles    
Events Rain    
Averages and records for this station are not official NWS values.
T = Trace of Precipitation, MM = Missing Value Source: NWS Daily Summary

Daily Weather History Graph

Daily Weather History Graph

Search for Another Location

Airport:

Trip Planner

Search our weather history database for the weather conditions in past years. The results will help you decide how hot, cold, wet, or windy it might be!

Date:

Astronomy

Mar. 19, 2013 Rise Set
Actual Time 6:36 AM HST 6:43 PM HST
Civil Twilight 6:14 AM HST 7:05 PM HST
Nautical Twilight 5:48 AM HST 7:31 PM HST
Astronomical Twilight 5:22 AM HST 7:57 PM HST
Moon 12:15 PM HST (3/19) 12:59 AM HST (3/19)
Length of Visible Light 12h 50m
Length of Day
12h 06m
First Quarter, 52% of the Moon is Illuminated
Mar 19
First Quarter
Mar 26
Full
Apr 2
Last Quarter
Apr 9
New
Apr 18
First Quarter

Hourly Weather History & Observations

Time (HST) Temp. Dew Point Humidity Pressure Visibility Wind Dir Wind Speed Gust Speed Precip Events Conditions
12:55 AM 57.6 °F 54.3 °F 89% 29.98 in 10.0 mi NW 4.6 mph - N/A   Clear
1:55 AM 56.8 °F 54.1 °F 91% 29.96 in 10.0 mi WNW 3.5 mph - N/A   Clear
2:55 AM 56.3 °F 54.0 °F 92% 29.94 in 10.0 mi Calm Calm - N/A   Clear
3:55 AM 56.3 °F 54.3 °F 93% 29.94 in 10.0 mi WNW 3.5 mph - N/A   Mostly Cloudy
4:55 AM 57.6 °F 55.0 °F 91% 29.94 in 10.0 mi West 4.6 mph - N/A   Mostly Cloudy
5:55 AM 57.7 °F 55.2 °F 91% 29.95 in 10.0 mi WNW 3.5 mph - N/A   Partly Cloudy
6:55 AM 57.2 °F 54.7 °F 91% 29.97 in 10.0 mi Calm Calm - N/A   Clear
7:55 AM 62.6 °F 59.0 °F 88% 29.99 in 10.0 mi Calm Calm - N/A   Clear
8:55 AM 67.6 °F 59.0 °F 74% 30.00 in 10.0 mi Calm Calm - N/A   Overcast
9:55 AM 69.8 °F 58.3 °F 67% 30.01 in 10.0 mi Calm Calm - N/A   Overcast
10:55 AM 73.2 °F 57.6 °F 58% 30.00 in 10.0 mi SSE 4.6 mph - N/A   Scattered Clouds
11:55 AM 74.3 °F 58.1 °F 57% 29.98 in 10.0 mi Variable 4.6 mph - N/A   Partly Cloudy
12:55 PM 75.4 °F 59.0 °F 57% 29.96 in 10.0 mi SSE 8.1 mph 17.3 mph N/A   Scattered Clouds
1:55 PM 74.8 °F 58.6 °F 57% 29.94 in 10.0 mi SE 11.5 mph 17.3 mph N/A   Mostly Cloudy
2:55 PM 75.0 °F 60.4 °F 60% 29.92 in 10.0 mi SSE 8.1 mph - N/A   Clear
3:55 PM 72.0 °F 60.6 °F 67% 29.94 in 10.0 mi SE 6.9 mph - N/A   Overcast
4:55 PM 71.4 °F 60.6 °F 69% 29.94 in 10.0 mi South 9.2 mph - N/A   Overcast
5:55 PM 71.4 °F 60.6 °F 69% 29.95 in 10.0 mi SSE 9.2 mph - N/A   Mostly Cloudy
6:55 PM 69.4 °F 60.6 °F 73% 29.97 in 10.0 mi SSE 4.6 mph - N/A   Mostly Cloudy
7:55 PM 68.2 °F 61.2 °F 78% 29.97 in 10.0 mi Calm Calm - N/A   Mostly Cloudy
8:23 PM 68.0 °F 62.6 °F 83% 29.98 in 10.0 mi Calm Calm - N/A   Overcast
8:55 PM 68.0 °F 61.5 °F 80% 29.99 in 10.0 mi Calm Calm - N/A   Overcast
9:03 PM 68.0 °F 60.8 °F 78% 29.99 in 10.0 mi Calm Calm - N/A   Overcast
9:06 PM 68.0 °F 60.8 °F 78% 29.99 in 10.0 mi Calm Calm - N/A   Overcast
9:11 PM 68.0 °F 60.8 °F 78% 29.99 in 10.0 mi Calm Calm - N/A   Overcast
9:55 PM 66.0 °F 61.3 °F 85% 30.00 in 10.0 mi Calm Calm - N/A   Partly Cloudy
10:55 PM 66.7 °F 61.9 °F 84% 30.00 in 10.0 mi Calm Calm - N/A   Overcast
10:59 PM 66.2 °F 60.8 °F 83% 30.00 in 10.0 mi Calm Calm - N/A   Light Drizzle
11:19 PM 66.2 °F 62.6 °F 88% 29.99 in 10.0 mi Calm Calm - N/A   Mostly Cloudy
11:30 PM 66.2 °F 60.8 °F 83% 29.99 in 10.0 mi Calm Calm - N/A   Mostly Cloudy
11:32 PM 66.2 °F 60.8 °F 83% 29.99 in 10.0 mi Calm Calm - N/A   Mostly Cloudy
11:45 PM 66.2 °F 62.6 °F 88% 29.99 in 10.0 mi South 3.5 mph - N/A   Light Drizzle
11:49 PM 66.2 °F 62.6 °F 88% 29.99 in 9.0 mi Calm Calm - N/A Rain Light Rain
11:54 PM 66.2 °F 62.6 °F 88% 29.99 in 5.0 mi SW 3.5 mph - N/A Rain Rain
11:55 PM 66.0 °F 62.2 °F 88% 29.99 in 4.0 mi Calm Calm - 0.02 in Rain Rain